# Land Stadt Wetter Temperatur Luftdruck Luftfeuchtigkeit Sichtweite Windgeschwindigkeit Windrichtung Ortszeit
1 ru Werchojansk Clear -22 1026 87 0 2 318 02.08.2018 14:22
2 ru Anadyr Clouds -19 1010 84 10000 14 350 02.08.2018 14:23
3 ru Jakutsk Clouds -16 1020 65 10000 14 290 02.08.2018 14:22
4 ru Amderma Snow -12 980 94 0 34 290 02.08.2018 14:23
5 gl Nuuk Clear -9 1033 56 10000 37 10 02.08.2018 14:22
6 no Hammerfest Clouds -7 981 62 10000 37 150 02.08.2018 14:22
7 us Nome Clouds -7 1019 92 16093 22 70 02.08.2018 14:23
8 mn Ulaanbaatar Clear -6 1024 57 10000 4 1 02.08.2018 14:23
9 mn Uliastai Clear -5 1031 42 0 8 110 02.08.2018 14:23
10 us Fairbanks Clouds -5 1024 72 16093 2 160 02.08.2018 14:23
11 fi Rovaniemi Clouds -4 979 58 10000 11 120 02.08.2018 14:21
12 us Denver Mist -4 1013 100 4828 15 30 02.08.2018 14:21
13 is Reykjavik Clouds -1 1015 86 10000 18 360 02.08.2018 14:22
14 ru Surgut Snow 0 994 97 2200 32 260 02.08.2018 14:23
15 bg Sofia Clouds 0 1014 71 10000 5 120 02.08.2018 14:21
16 in Jagatsukh Clouds 1 1023 32 0 12 42 02.08.2018 14:22
17 no Oslo Rain 1 976 59 10000 15 240 02.08.2018 14:23
18 kr Seoul Clear 3 1022 80 10000 7 221 02.08.2018 14:21
19 cn Lhasa Clouds 3 1015 16 0 8 145 02.08.2018 14:22
20 se Stockholm Rain 3 977 72 10000 39 240 02.08.2018 14:23
21 ru Moskau Clouds 4 1002 86 10000 25 220 02.08.2018 14:22
22 ua Kiew Clear 5 1011 44 6000 7 220 02.08.2018 14:21
23 fi Helsinki Rain 5 980 80 10000 44 210 02.08.2018 14:21
24 bg Warna Clear 5 1015 60 10000 17 70 02.08.2018 14:21
25 ca Montreal Rain 6 1009 80 14484 24 340 02.08.2018 14:22
26 de Flensburg Rain 6 1001 86 0 55 300 02.08.2018 14:21
27 gb Glasgow Clouds 6 1012 56 10000 24 300 02.08.2018 14:21
28 de Trier Clear 7 1012 52 10000 15 290 02.08.2018 14:21
29 de Kassel Clouds 7 1010 56 10000 28 310 02.08.2018 14:21
30 tr Istanbul Rain 7 1011 93 10000 21 350 02.08.2018 14:23
31 ch Andermatt Clouds 7 1010 40 0 8 240 02.08.2018 14:23
32 de Torfhaus Clouds 7 1006 65 0 6 261 02.08.2018 14:22
33 de Magdeburg Clouds 7 1009 60 0 10 303 02.08.2018 14:22
34 de Helgoland Drizzle 7 1005 87 9000 30 260 02.08.2018 14:22
35 de Dresden Clouds 7 1007 49 10000 8 310 02.08.2018 14:22
36 de Emden Drizzle 8 1006 81 6000 26 260 02.08.2018 14:21
37 ad Andorra la Vella Rain 8 1016 40 0 5 331 02.08.2018 14:22
38 de Hiddensee Rain 8 1006 63 0 5 225 02.08.2018 14:21
39 at Wien Clear 8 1010 30 10000 18 150 02.08.2018 14:22
40 gb Manchester Clouds 8 1014 61 10000 18 300 02.08.2018 14:21
41 de Oberstdorf Clear 8 1010 53 10000 4 190 02.08.2018 14:21
42 de Hannover Clouds 8 1008 61 10000 22 240 02.08.2018 14:21
43 de Braunschweig Clouds 8 1007 49 10000 26 240 02.08.2018 14:21
44 de Berlin Clouds 8 1007 52 10000 21 280 02.08.2018 14:21
45 de Hamburg Rain 8 1005 66 10000 18 260 02.08.2018 14:21
46 af Kabul Clouds 8 1022 65 10000 2 0 02.08.2018 14:21
47 de Nürnberg Clear 9 1009 34 10000 9 290 02.08.2018 14:21
48 it Rom Clouds 9 1012 40 10000 13 260 02.08.2018 14:23
49 fr Paris Clouds 9 1015 46 10000 9 300 02.08.2018 14:22
50 tr Ankara Clouds 9 1007 76 10000 9 0 02.08.2018 14:23
51 ie Dublin Clouds 9 1016 76 10000 31 310 02.08.2018 14:21
52 fr Nizza Clouds 9 1012 53 10000 4 0 02.08.2018 14:22
53 de Stuttgart Clear 9 1010 29 10000 9 330 02.08.2018 14:22
54 at Innsbruck Clouds 9 1008 37 10000 17 70 02.08.2018 14:23
55 de Bremen Clouds 9 1007 61 10000 28 260 02.08.2018 14:22
56 cn Peking Clear 9 1022 60 10000 11 350 02.08.2018 14:23
57 de München Clear 9 1009 34 10000 8 290 02.08.2018 14:21
58 de Köln Clouds 9 1012 49 10000 26 290 02.08.2018 14:21
59 ch Bern Rain 10 1010 40 10000 9 270 02.08.2018 14:23
60 jp Tokio Clouds 10 1018 43 10000 30 350 02.08.2018 14:22
61 it Mailand Clear 10 1012 37 10000 5 180 02.08.2018 14:21
62 de Freiburg Clouds 10 1011 30 10000 13 340 02.08.2018 14:22
63 it Palermo Clouds 10 1011 66 10000 18 70 02.08.2018 14:22
64 de Frankfurt Clouds 10 1010 37 10000 18 330 02.08.2018 14:22
65 gr Athen Clouds 11 1013 57 10000 11 310 02.08.2018 14:22
66 gb London Clouds 11 1013 54 10000 21 290 02.08.2018 14:22
67 nz Wellington Clouds 12 1022 87 10000 24 200 02.08.2018 14:23
68 es Madrid Rain 12 1013 62 10000 11 20 02.08.2018 14:23
69 es Barcelona Clouds 12 1012 66 10000 26 70 02.08.2018 14:22
70 jp Nagasaki Clouds 12 1022 50 0 6 42 02.08.2018 14:21
71 cn Shanghai Clouds 12 1023 66 10000 7 70 02.08.2018 14:21
72 au Perth Clear 13 1016 58 10000 17 180 02.08.2018 14:21
73 tr Alanya Clouds 13 1017 76 6000 8 340 02.08.2018 14:22
74 us New York Clouds 13 1004 50 16093 13 220 02.08.2018 14:22
75 us Chicago Clouds 14 1021 41 16093 8 110 02.08.2018 14:23
76 ar Ushuaia Clouds 14 1001 50 10000 22 340 02.08.2018 14:22
77 bo Potisi Clear 14 1017 15 0 18 52 02.08.2018 14:22
78 es Palma de Mallorca Rain 14 1010 82 10000 22 50 02.08.2018 14:22
79 fr Bordeaux Clouds 15 1015 33 10000 18 360 02.08.2018 14:21
80 es Tarifa Rain 15 1014 72 10000 26 280 02.08.2018 14:21
81 es Sevilla Clouds 16 1013 59 10000 5 200 02.08.2018 14:22
82 ar Esquel Clear 16 1025 55 10000 9 320 02.08.2018 14:22
83 pt Lissabon Clouds 16 1015 59 10000 17 310 02.08.2018 14:22
84 us Las Vegas Clouds 17 1014 17 16093 33 20 02.08.2018 14:21
85 bo La Paz Clouds 17 1041 33 10000 18 90 02.08.2018 14:22
86 pe Cusco Clouds 17 1033 32 10000 13 360 02.08.2018 14:23
87 au Sydney Mist 17 1009 93 10000 5 360 02.08.2018 14:22
88 ma Casablanca Clouds 17 1016 55 10000 18 360 02.08.2018 14:23
89 et Addis Abeba Clouds 18 1026 59 10000 9 50 02.08.2018 14:23
90 us Los Angeles Clouds 18 1015 52 16093 5 175 02.08.2018 14:22
91 za Kapstadt Clear 19 1015 77 10000 17 220 02.08.2018 14:22
92 ke Nairobi Rain 19 1019 82 10000 15 60 02.08.2018 14:22
93 iq Bagdad Clouds 20 1014 42 10000 5 320 02.08.2018 14:22
94 us Death Valley Clear 20 1014 24 0 16 6 02.08.2018 14:22
95 es Las Palmas de Gran Canaria Clouds 20 1015 64 10000 24 40 02.08.2018 14:21
96 ma Marrakesch Clouds 21 1014 32 8000 15 70 02.08.2018 14:23
97 mg Antananarivo Clouds 21 1017 83 10000 8 150 02.08.2018 14:21
98 uy Montevideo Clouds 21 1015 52 10000 39 210 02.08.2018 14:22
99 vn Hanoi Mist 21 1012 94 5000 8 60 02.08.2018 14:21
100 eg Kairo Clear 21 1016 40 10000 11 350 02.08.2018 14:22
101 ar Buenos Aires Clouds 22 1018 40 10000 13 200 02.08.2018 14:22
102 pg Port Moresby Clouds 23 1008 100 10000 8 0 02.08.2018 14:21
103 us Honolulu Clouds 23 1014 78 16093 8 350 02.08.2018 14:22
104 us Tucson Clear 24 1013 19 16093 9 200 02.08.2018 14:21
105 fj Suva Rain 24 1008 88 0 5 293 02.08.2018 14:21
106 mx Mexiko Stadt Clear 24 1025 36 9656 8 120 02.08.2018 14:21
107 au Darwin Clouds 25 1008 88 10000 2 310 02.08.2018 14:22
108 bs Nassau Clouds 25 1015 50 10000 15 40 02.08.2018 14:22
109 ae Dubai Clear 25 1012 65 10000 5 90 02.08.2018 14:21
110 id Jakarta Clouds 25 1009 83 6000 11 270 02.08.2018 14:22
111 sa Riad Clear 26 1013 26 10000 4 160 02.08.2018 14:21
112 qa Doha Clear 26 1010 65 10000 9 110 02.08.2018 14:23
113 au Alice Springs Clouds 26 1007 57 10000 21 340 02.08.2018 14:21
114 sb Honiara Rain 26 1002 86 0 25 291 02.08.2018 14:22
115 us Miami Clouds 27 1015 42 16093 11 360 02.08.2018 14:23
116 ck Avarua Clouds 27 1008 88 10000 4 150 02.08.2018 14:22
117 ph Manila Clouds 27 1012 65 10000 5 90 02.08.2018 14:21
118 in Nagpur Haze 29 1011 35 4000 8 20 02.08.2018 14:21
119 ec San Cristobal Clouds 29 1009 74 10000 17 140 02.08.2018 14:22
120 mv Male Clouds 29 1010 74 10000 13 80 02.08.2018 14:23
121 cd Kisangani Clouds 29 1005 56 0 2 180 02.08.2018 14:23
122 in Mumbai Haze 29 1010 74 3000 9 290 02.08.2018 14:22
123 do Santo Domingo Clouds 30 1013 49 10000 18 180 02.08.2018 14:21
124 th Bangkok Clouds 30 1010 74 10000 11 190 02.08.2018 14:21
125 br Rio de Janeiro Clear 31 1008 70 10000 18 180 02.08.2018 14:22
126 br Manaus Rain 31 1010 74 10000 8 80 02.08.2018 14:21
127 cl Santiago Clouds 31 1013 8 10000 8 280 02.08.2018 14:23
128 mx Veracruz Clouds 32 1011 52 8047 18 200 02.08.2018 14:21